SL-8 DEB, 1634

Orbit data source: Space-Track

SL-8 DEB, 1634 is space debris in LEO originally from a launch on Mon, 15 Mar 1965 UTC launched from the Tyuratam Missile And Space Complex (TTMTR). Debris objects in space refer to the collection of defunct objects orbiting the Earth. Examples of debris include non-operational satellites, rocket bodies, and fragments generated from explosions, collisions, or faulty payload assembly.

Loading next visibility...
Identifier
1634, 1965-020ED
Orbit
LEO
Country
Flag of CISCIS
Related business
Manufacturer
Unknown
Mission
Spacecraft
Bus & Motor
Unknown
Mass
Unknown
Launch date (UTC)
1965-03-15 (61 years ago)
Launch vehicle
Unknown
Launch site
Tyuratam Missile And Space Complex (TTMTR)
Object type
Payload
Rocket body
Debris
Shape & HBR
Unknown
Radar Cross Section
Small (<0.1 m²)

Expand to show TLE details & history
Last TLE update: 1 day ago

TLE from 1 day ago
0 SL-8 DEB
1 01634U 65020ED  25260.80323556  .00000055  00000-0  27345-3 0  9998
2 01634  56.1521  85.5029 0856578  73.6328 295.6943 12.48469479728462
Epoch: 2025-09-17T19:16Z
TLE epoch observation values (Epoch: 2025-09-17T19:16:39.552Z)
Latitude
-0.00003°
Longitude
159.36413°
Altitude
1,229.741 km
Speed
7.351 km/s
True Right ascension
05h 42m 00s
True Declination
0° 00' 00"
Sunlit
Object was in daylight at epoch
Visualization orbit readout
Latitude
Unknown
Longitude
Unknown
Altitude
Unknown
Speed
Unknown
Apparent Right ascension
Unknown
Apparent Declination
Unknown
Sunlit
N/A
Visualization observer readout
Local Sidereal Time
20:59:31
Azimuth
Unknown
Elevation
Unknown
Doppler factor
Unknown
Orbital elements
Apogee altitude
2,143.027 km
Perigee altitude
798.396 km
Semi-major axis
7,848.848 km
Eccentricity
0.08566
Inclination
56.1521°
RAAN
85.5029°
Arg. of periapsis
73.6328°
True anomaly
286.45985°
Mean anomaly
295.6943°
Eccentric anomaly
291.11602°
Mean motion
3.12129 °/min
Orbital period
115.34 mins
BSTAR
0.00027345
Loading maneuver chart data...
Computing Atmospheric mass density...
Loading historical data...
Loading historical data...
Loading historical data...
Loading historical data...
Loading historical data...
Loading historical data...
Loading historical data...

Documentation

Showing up to 5 results
|